Regional Weather Roundup
Issued by NWS Goodland, KS

Home | Current Version | Previous Version | Graphics & Text | Print | Product List | Glossary On
Versions: 1 2 3 4 5 6 7 8 9 10 11 12 13 14 15 16 17 18 19 20 21 22 23 24 25 26 27 28 29 30 31 32 33 34 35 36 37 38 39 40 41 42 43 44 45 46 47 48 49 50
000
ASUS43 KGLD 312208
RWRGLD

GOODLAND FORECAST AREA HOURLY WEATHER ROUNDUP
NATIONAL WEATHER SERVICE GOODLAND KS
400 PM MDT TUE MAY 31 2016

...OFFICIAL OBSERVATIONS...

CITY           SKY/WX    TMP DP  RH WIND       PRES   REMARKS
GOODLAND KS    MOSUNNY   68  46  45 NE7       30.02F
HILL CITY KS   SUNNY     75  52  44 NE10      29.97F
IMPERIAL NEB   SUNNY     69  45  41 NW6       30.02F
MCCOOK NEB     CLOUDY    72  48  42 N9        30.00F
AKRON CO       PTSUNNY   64  45  49 VRB5      30.06F
BURLINGTON CO  MOSUNNY   71  45  39 NE9       30.03F
LIMON CO       PTSUNNY   66  48  52 S9        30.07S
$$

...UNOFFICIAL OBSERVATIONS...

CITY           SKY/WX    TMP DP  RH WIND       PRES   REMARKS
GOVE KS          N/A     74  32  21 MISG        N/A
LENORA KS        N/A     72  32  23 MISG        N/A
SHARON SPRINGS   N/A     70  53  53 CALM        N/A
TRIBUNE KS     PTSUNNY   72  54  53 N6        30.03F
KIT CARSON CO    N/A     71  51  49 MISG        N/A
YUMA CO          N/A     67  51  56 NE8         N/A
$$



USA.gov is the U.S. government's official web portal to all federal, state and local government web resources and services.